Location: Cassano d�Adda
(45.5333°N, 9.5167°E)
Time: 06:56:10
(UTC+00:00)

Cosmos 304 Rocket - Pass Details

Date: 08 December 2019
Orbit: 679 x 688 km, 74.0° (Epoch: 19 January)

Event Time Altitude Azimuth Distance (km) Brightness Sun altitude
Rises 16:11:26 0° 340° (NNW) 3,056 7.1 -5.9°
Reaches altitude 10° 16:13:45 10° 342° (NNW) 2,138 6.2 -6.2°
Maximum altitude 16:18:34 75° 68° (ENE) 714 3.7 -7.0°
Drops below altitude 10° 16:23:22 10° 154° (SSE) 2,129 6.3 -7.7°
Sets 16:25:40 0° 156° (SSE) 3,041 7.1 -8.1°
